﻿_id,日時,平均風速(m/s),平均風向,最大瞬間風速(m/s),最大風速時風向,気温(℃),湿度(%),10分間移動積算雨量(mm),1時間移動積算雨量(mm),日雨量(mm),累計雨量(mm),日射(日積算)(MJ/m2),日照(日積算)(min),現地気圧(hPa),海面気圧(hPa)
1,2021-02-15T00:00:00,1.5,北北東,2.5,北北東,10.5,96.2,0,1.5,1.5,1.5,13.59,398,998.9,1012.9
2,2021-02-15T00:01:00,1.4,北北東,2.5,北北東,10.5,96.1,0,1.5,0,1.5,0,0,998.9,1012.9
3,2021-02-15T00:02:00,1.4,北北東,2.5,北北東,10.4,96.1,0,1.5,0,1.5,0,0,998.9,1012.9
4,2021-02-15T00:03:00,1.3,北北東,2.5,北北東,10.5,96.2,0,1.5,0,1.5,0,0,998.9,1012.9
5,2021-02-15T00:04:00,1.2,北北東,2,北,10.6,96.3,0,1.5,0,1.5,0,0,998.9,1012.9
6,2021-02-15T00:05:00,1.1,北北東,2,北,10.5,96.1,0,1.5,0,1.5,0,0,998.9,1012.9
7,2021-02-15T00:06:00,1,北北東,2,北,10.4,96.1,0,1.5,0,1.5,0,0,998.9,1012.9
8,2021-02-15T00:07:00,1,北北東,2,北,10.4,95.9,0,1.5,0,1.5,0,0,998.8,1012.8
9,2021-02-15T00:08:00,1,北北東,1.9,北北東,10.4,96,0,1.5,0,1.5,0,0,998.8,1012.8
10,2021-02-15T00:09:00,1,北北東,1.9,北北東,10.3,95.9,0,1.5,0,1.5,0,0,998.7,1012.7
11,2021-02-15T00:10:00,1,北北東,1.8,北北東,10.4,96.1,0,1.5,0,1.5,0,0,998.7,1012.7
12,2021-02-15T00:11:00,0.9,北北東,1.8,北北東,10.4,96.2,0,1.5,0,1.5,0,0,998.6,1012.6
13,2021-02-15T00:12:00,0.9,北北東,1.8,北北東,10.3,96.1,0,1,0,1.5,0,0,998.6,1012.6
14,2021-02-15T00:13:00,1,北北東,1.8,北北東,10.3,96,0,1,0,1.5,0,0,998.6,1012.6
15,2021-02-15T00:14:00,1,北北東,1.8,北北東,10.2,96,0,1,0,1.5,0,0,998.6,1012.6
16,2021-02-15T00:15:00,1.1,北北東,1.8,北北東,10.3,96.1,0,1,0,1.5,0,0,998.6,1012.6
17,2021-02-15T00:16:00,1.1,北北東,1.8,北北東,10.2,96.1,0,1,0,1.5,0,0,998.6,1012.6
18,2021-02-15T00:17:00,1.2,北北東,1.9,北,10.3,96.2,0,1,0,1.5,0,0,998.6,1012.6
19,2021-02-15T00:18:00,1.2,北北東,1.9,北,10.3,96.3,0,1,0,1.5,0,0,998.6,1012.6
20,2021-02-15T00:19:00,1.1,北北東,1.9,北,10.3,96.3,0.5,1.5,0.5,2,0,0,998.7,1012.7
21,2021-02-15T00:20:00,1,北,1.9,北,10.2,96.3,0.5,1.5,0.5,2,0,0,998.7,1012.7
22,2021-02-15T00:21:00,0.9,北,1.9,北,10.3,96.2,0.5,1.5,0.5,2,0,0,998.7,1012.7
23,2021-02-15T00:22:00,0.9,北,1.9,北,10.3,96.3,0.5,1.5,0.5,2,0,0,998.6,1012.6
24,2021-02-15T00:23:00,0.9,北,1.9,北,10.3,96.3,0.5,1.5,0.5,2,0,0,998.6,1012.6
25,2021-02-15T00:24:00,0.9,北,1.9,北,10.3,96.3,0.5,1.5,0.5,2,0,0,998.6,1012.6
26,2021-02-15T00:25:00,0.8,北,1.9,北,10.4,96.3,0.5,1.5,0.5,2,0,0,998.6,1012.6
27,2021-02-15T00:26:00,0.8,北北西,1.9,北,10.4,96.4,0.5,1.5,0.5,2,0,0,998.5,1012.5
28,2021-02-15T00:27:00,0.7,北北西,1.5,北西,10.4,96.3,0.5,1.5,0.5,2,0,0,998.6,1012.6
29,2021-02-15T00:28:00,0.6,北北西,1.5,北西,10.3,96.2,0.5,1.5,0.5,2,0,0,998.5,1012.5
30,2021-02-15T00:29:00,0.6,北北西,1.5,北西,10.4,96.3,0,1.5,0.5,2,0,0,998.5,1012.5
31,2021-02-15T00:30:00,0.6,北北西,1.5,北西,10.3,96.4,0,1.5,0.5,2,0,0,998.5,1012.5
32,2021-02-15T00:31:00,0.6,北北西,1.5,北西,10.4,96.3,0,1.5,0.5,2,0,0,998.5,1012.5
33,2021-02-15T00:32:00,0.6,北北西,1.5,北西,10.4,96.3,0,1.5,0.5,2,0,0,998.4,1012.4
34,2021-02-15T00:33:00,0.5,北北西,1.5,北西,10.5,96.3,0,1.5,0.5,2,0,0,998.4,1012.4
35,2021-02-15T00:34:00,0.4,北北西,1.5,北西,10.3,96.4,0,1.5,0.5,2,0,0,998.3,1012.3
36,2021-02-15T00:35:00,0.4,北,1.5,北西,10.2,96,0,1,0.5,2,0,0,998.3,1012.3
37,2021-02-15T00:36:00,0.4,北,1.4,北北東,10.3,96.2,0,1,0.5,2,0,0,998.2,1012.2
38,2021-02-15T00:37:00,0.5,北,1.4,北北東,10.4,96.5,0,1,0.5,2,0,0,998.2,1012.2
39,2021-02-15T00:38:00,0.5,北,1.4,北北東,10.6,96.5,0,1,0.5,2,0,0,998.1,1012.1
40,2021-02-15T00:39:00,0.5,北,1.9,北東,10.4,96.5,0,1,0.5,2,0,0,998.1,1012.1
41,2021-02-15T00:40:00,0.7,北北東,2,北東,10.4,96.2,0,1,0.5,2,0,0,998,1012
42,2021-02-15T00:41:00,0.8,北北東,2,北東,10.4,96.2,0,1,0.5,2,0,0,998.1,1012.1
43,2021-02-15T00:42:00,0.8,北北東,2,北東,10.3,96.3,0,1,0.5,2,0,0,998,1012
44,2021-02-15T00:43:00,0.9,北北東,2,北東,10.3,96.1,0,1,0.5,2,0,0,998,1012
45,2021-02-15T00:44:00,0.9,北北東,2,北東,10.3,96.2,0,1,0.5,2,0,0,998,1012
46,2021-02-15T00:45:00,0.9,北,2,北東,10.2,96.1,0,1,0.5,2,0,0,997.9,1011.9
47,2021-02-15T00:46:00,0.8,北,2,北東,10.2,96.1,0,1,0.5,2,0,0,997.9,1011.9
48,2021-02-15T00:47:00,0.7,北,2,北東,10.2,96.2,0,1,0.5,2,0,0,997.8,1011.8
49,2021-02-15T00:48:00,0.7,北,2,北東,10.2,96.3,0,1,0.5,2,0,0,997.8,1011.8
50,2021-02-15T00:49:00,0.6,北北西,2,北東,10.1,96.2,0,1,0.5,2,0,0,997.7,1011.7
51,2021-02-15T00:50:00,0.5,北北西,1.8,北東,10.1,96.2,0,0.5,0.5,2,0,0,997.7,1011.7
52,2021-02-15T00:51:00,0.3,北北西,1.3,北北東,10,96.1,0,0.5,0.5,2,0,0,997.7,1011.7
53,2021-02-15T00:52:00,0.3,北北西,1,北,10,96.3,0,0.5,0.5,2,0,0,997.7,1011.7
54,2021-02-15T00:53:00,0.2,静穏,1,北,10.2,96.5,0,0.5,0.5,2,0,0,997.7,1011.7
55,2021-02-15T00:54:00,0.2,静穏,1,北,10.1,96.6,0,0.5,0.5,2,0,0,997.7,1011.7
56,2021-02-15T00:55:00,0.2,静穏,1,北,10.2,96.6,0,0.5,0.5,2,0,0,997.6,1011.6
57,2021-02-15T00:56:00,0.1,静穏,0.8,北西,10.2,96.7,0,0.5,0.5,2,0,0,997.6,1011.6
58,2021-02-15T00:57:00,0.2,静穏,0.8,北西,10.1,96.6,0,0.5,0.5,2,0,0,997.6,1011.6
59,2021-02-15T00:58:00,0.2,静穏,0.8,北西,10,96.6,0,0.5,0.5,2,0,0,997.6,1011.6
60,2021-02-15T00:59:00,0.2,静穏,0.8,北西,10.1,96.3,0,0.5,0.5,2,0,0,997.6,1011.6
61,2021-02-15T01:00:00,0.2,静穏,0.7,北西,10.2,96.7,0,0.5,0.5,2,0,0,997.6,1011.6
62,2021-02-15T01:01:00,0.3,北,0.7,北西,10.2,96.8,0.5,1,1,2.5,0,0,997.6,1011.6
63,2021-02-15T01:02:00,0.3,北,0.7,北西,10.1,96.7,0.5,1,1,2.5,0,0,997.6,1011.6
64,2021-02-15T01:03:00,0.3,北,0.9,北北東,10.1,96.7,0.5,1,1,2.5,0,0,997.6,1011.6
65,2021-02-15T01:04:00,0.4,北,1,北東,10.2,96.8,0.5,1,1,2.5,0,0,997.5,1011.5
66,2021-02-15T01:05:00,0.4,北,1.1,北東,10.2,97,0.5,1,1,2.5,0,0,997.5,1011.5
67,2021-02-15T01:06:00,0.4,北,1.1,北東,10.2,96.9,0.5,1,1,2.5,0,0,997.5,1011.5
68,2021-02-15T01:07:00,0.4,北,1.1,北東,10.2,96.8,0.5,1,1,2.5,0,0,997.5,1011.5
69,2021-02-15T01:08:00,0.4,北,1.1,北東,10.1,96.8,0.5,1,1,2.5,0,0,997.5,1011.5
70,2021-02-15T01:09:00,0.3,北,1.1,北東,10.1,96.8,0.5,1,1,2.5,0,0,997.5,1011.5
71,2021-02-15T01:10:00,0.3,北,1.1,北東,10.3,96.9,0.5,1,1,2.5,0,0,997.6,1011.6
72,2021-02-15T01:11:00,0.3,北,1.1,北東,10,96.8,0,1,1,2.5,0,0,997.6,1011.6
73,2021-02-15T01:12:00,0.3,北,1.1,北東,10.2,96.8,0,1,1,2.5,0,0,997.6,1011.6
74,2021-02-15T01:13:00,0.4,北,1.5,北東,10.3,97.2,0,1,1,2.5,0,0,997.6,1011.6
75,2021-02-15T01:14:00,0.4,北北西,1.5,北東,10.4,97.3,0,1,1,2.5,0,0,997.6,1011.6
76,2021-02-15T01:15:00,0.4,北北西,1.5,北東,10.5,97.4,0,1,1,2.5,0,0,997.6,1011.6
77,2021-02-15T01:16:00,0.4,北北西,1.5,北東,10.4,97.2,0,1,1,2.5,0,0,997.6,1011.6
78,2021-02-15T01:17:00,0.4,北北西,1.5,北東,10.4,97.2,0,1,1,2.5,0,0,997.5,1011.5
79,2021-02-15T01:18:00,0.4,北北西,1.5,北東,10.4,97,0,1,1,2.5,0,0,997.5,1011.5
80,2021-02-15T01:19:00,0.5,北北西,1.5,北東,10.4,97,0,0.5,1,2.5,0,0,997.5,1011.5
81,2021-02-15T01:20:00,0.5,北北西,1.5,北東,10.4,97.1,0,0.5,1,2.5,0,0,997.5,1011.5
82,2021-02-15T01:21:00,0.5,北北西,1.5,北東,10.4,97,0,0.5,1,2.5,0,0,997.4,1011.4
83,2021-02-15T01:22:00,0.6,北北西,1.5,北東,10.4,97.1,0,0.5,1,2.5,0,0,997.4,1011.4
84,2021-02-15T01:23:00,0.6,北北西,1.4,北,10.4,97.1,0,0.5,1,2.5,0,0,997.4,1011.4
85,2021-02-15T01:24:00,0.6,北,1.5,北北東,10.4,96.9,0,0.5,1,2.5,0,0,997.3,1011.3
86,2021-02-15T01:25:00,0.7,北,1.5,北北東,10.4,97.1,0,0.5,1,2.5,0,0,997.3,1011.3
87,2021-02-15T01:26:00,0.7,北,1.5,北北東,10.3,97,0,0.5,1,2.5,0,0,997.2,1011.2
88,2021-02-15T01:27:00,0.8,北,1.8,北北東,10.3,96.9,0,0.5,1,2.5,0,0,997.2,1011.2
89,2021-02-15T01:28:00,0.9,北北東,1.8,北北東,10.3,96.9,0.5,1,1.5,3,0,0,997.2,1011.2
90,2021-02-15T01:29:00,0.8,北北東,1.8,北北東,10.2,96.9,0.5,1,1.5,3,0,0,997.1,1011.1
91,2021-02-15T01:30:00,0.8,北,1.8,北北東,10.2,96.8,0.5,1,1.5,3,0,0,997.1,1011.1
92,2021-02-15T01:31:00,0.8,北,1.8,北北東,10.2,96.8,0.5,1,1.5,3,0,0,997.1,1011.1
93,2021-02-15T01:32:00,0.9,北,1.8,北北東,10.1,96.9,0.5,1,1.5,3,0,0,997.2,1011.2
94,2021-02-15T01:33:00,0.9,北,1.8,北北東,10.2,96.8,0.5,1,1.5,3,0,0,997.1,1011.1
95,2021-02-15T01:34:00,0.9,北,1.8,北北東,10.2,97,0.5,1,1.5,3,0,0,997.1,1011.1
96,2021-02-15T01:35:00,0.8,北北西,1.8,北北東,10.2,96.9,0.5,1,1.5,3,0,0,997,1011
97,2021-02-15T01:36:00,0.8,北北西,1.8,北北東,10.2,97,0.5,1,1.5,3,0,0,997,1011
98,2021-02-15T01:37:00,0.7,北北西,1.8,北北東,10.1,96.9,0.5,1,1.5,3,0,0,997,1011
99,2021-02-15T01:38:00,0.7,北北西,2.3,北,10.2,96.9,0,1,1.5,3,0,0,996.9,1010.9
100,2021-02-15T01:39:00,0.9,北北西,2.3,北,10.4,97.2,0,1,1.5,3,0,0,996.9,1010.9
101,2021-02-15T01:40:00,1,北,2.4,北北東,10.2,97.2,0,1,1.5,3,0,0,996.8,1010.8
102,2021-02-15T01:41:00,1.1,北,2.4,北北東,10.2,97,0,1,1.5,3,0,0,996.7,1010.7
103,2021-02-15T01:42:00,1.2,北,2.4,北北東,10.1,97,0,1,1.5,3,0,0,996.7,1010.7
104,2021-02-15T01:43:00,1.2,北,2.4,北北東,10.2,96.9,0,1,1.5,3,0,0,996.7,1010.7
105,2021-02-15T01:44:00,1.3,北北東,2.4,北北東,10.2,97.1,0,1,1.5,3,0,0,996.6,1010.6
106,2021-02-15T01:45:00,1.3,北北東,2.4,北北東,10.1,97.1,0.5,1.5,2,3.5,0,0,996.6,1010.6
107,2021-02-15T01:46:00,1.5,北北東,2.4,北北東,10.3,97.2,0.5,1.5,2,3.5,0,0,996.5,1010.5
108,2021-02-15T01:47:00,1.5,北北東,2.4,北北東,10.3,97.2,0.5,1.5,2,3.5,0,0,996.5,1010.5
109,2021-02-15T01:48:00,1.4,北北東,2.4,北北東,10.3,97.2,0.5,1.5,2,3.5,0,0,996.5,1010.5
110,2021-02-15T01:49:00,1.3,北北東,2.4,北北東,10.2,97.1,0.5,1.5,2,3.5,0,0,996.5,1010.5
111,2021-02-15T01:50:00,1.2,北北東,2.4,北北東,10.1,97,0.5,1.5,2,3.5,0,0,996.5,1010.5
112,2021-02-15T01:51:00,1.2,北北東,2.4,北北東,10.2,96.9,0.5,1.5,2,3.5,0,0,996.5,1010.5
113,2021-02-15T01:52:00,1.1,北北東,2.3,北,10.2,97.1,0.5,1.5,2,3.5,0,0,996.5,1010.5
114,2021-02-15T01:53:00,1.1,北北東,2.3,北,10.1,97.1,0.5,1.5,2,3.5,0,0,996.5,1010.5
115,2021-02-15T01:54:00,1.1,北北東,2.3,北,10,97,1,2,2.5,4,0,0,996.5,1010.5
116,2021-02-15T01:55:00,1.1,北北東,2.3,北,10.1,97,0.5,2,2.5,4,0,0,996.5,1010.5
117,2021-02-15T01:56:00,1,北北東,2.1,北北東,10,97,0.5,2,2.5,4,0,0,996.5,1010.5
118,2021-02-15T01:57:00,1,北北東,2.1,北北東,10.1,97,0.5,2,2.5,4,0,0,996.4,1010.4
119,2021-02-15T01:58:00,1,北北東,2,北東,10.2,97.3,0.5,2,2.5,4,0,0,996.4,1010.4
120,2021-02-15T01:59:00,1,北北東,2,北東,10.1,97.3,0.5,2,2.5,4,0,0,996.4,1010.4
121,2021-02-15T02:00:00,1,北北東,2,北東,9.9,97,0.5,2,2.5,4,0,0,996.4,1010.4
122,2021-02-15T02:01:00,1,北北東,1.8,北北東,10,97,0.5,1.5,2.5,4,0,0,996.3,1010.3
123,2021-02-15T02:02:00,1,北北東,1.7,北北東,9.9,97.1,1,2,3,4.5,0,0,996.3,1010.3
124,2021-02-15T02:03:00,0.9,北北東,1.5,北,10,97.1,1,2,3,4.5,0,0,996.3,1010.3
125,2021-02-15T02:04:00,0.9,北北東,1.5,北,10.1,97.3,0.5,2,3,4.5,0,0,996.3,1010.3
126,2021-02-15T02:05:00,0.8,北北東,1.5,北,10.1,97.3,0.5,2,3,4.5,0,0,996.2,1010.2
127,2021-02-15T02:06:00,0.8,北北東,1.5,北,9.9,97.3,0.5,2,3,4.5,0,0,996.2,1010.2
128,2021-02-15T02:07:00,0.8,北北東,1.5,北,10.1,97.2,0.5,2,3,4.5,0,0,996.2,1010.2
129,2021-02-15T02:08:00,0.8,北,1.5,北,10,97.3,0.5,2,3,4.5,0,0,996.1,1010.1
130,2021-02-15T02:09:00,0.8,北北東,1.5,北,10,97.3,0.5,2,3,4.5,0,0,996.1,1010.1
131,2021-02-15T02:10:00,0.8,北北東,1.5,北,10.1,97.3,0.5,2,3,4.5,0,0,996.1,1010.1
132,2021-02-15T02:11:00,0.8,北北東,1.6,北東,9.9,97.3,0.5,2,3,4.5,0,0,996,1010
133,2021-02-15T02:12:00,0.8,北北東,1.6,北東,10.1,97.3,0,2,3,4.5,0,0,996,1010
134,2021-02-15T02:13:00,0.9,北北東,1.8,北東,10.1,97.4,0,2,3,4.5,0,0,996,1010
135,2021-02-15T02:14:00,1,北北東,1.8,北東,10,97.4,0,2,3,4.5,0,0,995.9,1009.9
136,2021-02-15T02:15:00,1,北北東,1.8,北東,10.2,97.5,0,2,3,4.5,0,0,995.9,1009.9
137,2021-02-15T02:16:00,1.1,北北東,1.9,北北東,10.2,97.6,0,2,3,4.5,0,0,995.8,1009.8
138,2021-02-15T02:17:00,1.2,北北東,2.1,北北東,10.2,97.5,0,2,3,4.5,0,0,995.8,1009.8
139,2021-02-15T02:18:00,1.3,北東,2.1,北北東,10.3,97.6,0,2,3,4.5,0,0,995.7,1009.7
140,2021-02-15T02:19:00,1.3,北東,2.1,北北東,10.4,97.6,0,2,3,4.5,0,0,995.7,1009.7
141,2021-02-15T02:20:00,1.4,北東,2.1,北北東,10.2,97.5,0,2,3,4.5,0,0,995.7,1009.7
142,2021-02-15T02:21:00,1.5,北東,2.1,北北東,10.3,97.5,0,2,3,4.5,0,0,995.6,1009.6
143,2021-02-15T02:22:00,1.4,北東,2.1,北北東,10.2,97.6,0,2,3,4.5,0,0,995.6,1009.6
144,2021-02-15T02:23:00,1.5,北東,2.1,北北東,10.2,97.4,0,2,3,4.5,0,0,995.5,1009.5
145,2021-02-15T02:24:00,1.4,北東,2.1,北北東,10.2,97.3,0,2,3,4.5,0,0,995.5,1009.5
146,2021-02-15T02:25:00,1.5,北東,2.4,北東,10.3,97.5,0,2,3,4.5,0,0,995.5,1009.5
147,2021-02-15T02:26:00,1.5,北東,2.4,北東,10.2,97.5,0.5,2.5,3.5,5,0,0,995.5,1009.5
148,2021-02-15T02:27:00,1.5,北東,2.4,北東,10.1,97.4,0.5,2.5,3.5,5,0,0,995.4,1009.4
149,2021-02-15T02:28:00,1.4,北東,2.4,北東,10.2,97.3,0.5,2,3.5,5,0,0,995.4,1009.4
150,2021-02-15T02:29:00,1.3,北北東,2.4,北東,10.2,97.3,0.5,2,3.5,5,0,0,995.4,1009.4
151,2021-02-15T02:30:00,1.3,北北東,2.4,北東,10.2,97.4,0.5,2,3.5,5,0,0,995.3,1009.3
152,2021-02-15T02:31:00,1.3,北北東,2.4,北東,10.2,97.5,0.5,2,3.5,5,0,0,995.3,1009.3
153,2021-02-15T02:32:00,1.3,北北東,2.4,北東,10.2,97.5,0.5,2,3.5,5,0,0,995.2,1009.2
154,2021-02-15T02:33:00,1.3,北北東,2.4,北東,10.2,97.4,0.5,2,3.5,5,0,0,995.1,1009.1
155,2021-02-15T02:34:00,1.3,北北東,2.4,北東,10.1,97.4,0.5,2,3.5,5,0,0,995.1,1009.1
156,2021-02-15T02:35:00,1.3,北北東,2.1,北東,10,97.3,0.5,2,3.5,5,0,0,995.1,1009.1
157,2021-02-15T02:36:00,1.3,北北東,2.1,北東,10.2,97.3,0,2,3.5,5,0,0,995,1009
158,2021-02-15T02:37:00,1.3,北北東,2.1,北東,10.2,97.4,0,2,3.5,5,0,0,995,1009
159,2021-02-15T02:38:00,1.3,北北東,2,北東,10.1,97.4,0,2,3.5,5,0,0,994.9,1008.9
160,2021-02-15T02:39:00,1.3,北東,2.3,北北東,10.1,97.3,0,2,3.5,5,0,0,994.9,1008.9
161,2021-02-15T02:40:00,1.4,北東,2.6,北東,10.1,97.4,0,2,3.5,5,0,0,994.8,1008.8
162,2021-02-15T02:41:00,1.5,北東,3.1,北東,10.1,97.4,0,2,3.5,5,0,0,994.8,1008.8
163,2021-02-15T02:42:00,1.6,北東,3.1,北東,10.2,97.5,0,2,3.5,5,0,0,994.7,1008.7
164,2021-02-15T02:43:00,1.6,北東,3.1,北東,10.3,97.7,0,2,3.5,5,0,0,994.6,1008.6
165,2021-02-15T02:44:00,1.7,北東,3.4,北東,10.2,97.6,0,2,3.5,5,0,0,994.5,1008.5
166,2021-02-15T02:45:00,1.8,北東,3.4,北東,10.3,97.5,0,1.5,3.5,5,0,0,994.5,1008.5
167,2021-02-15T02:46:00,1.9,北東,3.4,北東,10.3,97.5,0,1.5,3.5,5,0,0,994.4,1008.4
168,2021-02-15T02:47:00,1.9,北東,3.4,北東,10.3,97.6,0,1.5,3.5,5,0,0,994.5,1008.5
169,2021-02-15T02:48:00,2.1,北東,3.4,北東,10.2,97.5,0,1.5,3.5,5,0,0,994.5,1008.5
170,2021-02-15T02:49:00,2.2,北東,3.4,北東,10.2,97.3,0,1.5,3.5,5,0,0,994.5,1008.5
171,2021-02-15T02:50:00,2.1,北東,3.4,北東,10.1,97.2,0,1.5,3.5,5,0,0,994.6,1008.6
172,2021-02-15T02:51:00,2.1,北東,3.4,北東,10.2,97.3,0,1.5,3.5,5,0,0,994.6,1008.6
173,2021-02-15T02:52:00,2.1,北東,3.4,北東,10.3,97.3,0,1.5,3.5,5,0,0,994.6,1008.6
174,2021-02-15T02:53:00,2,北東,3.4,北東,10.3,97.4,0,1.5,3.5,5,0,0,994.6,1008.6
175,2021-02-15T02:54:00,2,北東,3.3,北東,10.2,97.5,0,1,3.5,5,0,0,994.6,1008.6
176,2021-02-15T02:55:00,1.9,北東,3.1,北東,10.3,97.4,0,1,3.5,5,0,0,994.6,1008.6
177,2021-02-15T02:56:00,1.7,北東,3.1,北東,10.2,97.5,0,1,3.5,5,0,0,994.5,1008.5
178,2021-02-15T02:57:00,1.7,北東,3.1,北東,10.4,97.5,0,1,3.5,5,0,0,994.5,1008.5
179,2021-02-15T02:58:00,1.5,北東,3.1,北東,10.3,97.4,0,1,3.5,5,0,0,994.4,1008.4
180,2021-02-15T02:59:00,1.4,北東,2.7,北北東,10.3,97.4,0,1,3.5,5,0,0,994.4,1008.4
181,2021-02-15T03:00:00,1.3,北東,2.7,北北東,10.2,97.3,0,1,3.5,5,0,0,994.3,1008.3
182,2021-02-15T03:01:00,1.2,北北東,2.5,北北東,10.1,97.1,0,1,3.5,5,0,0,994.2,1008.2
183,2021-02-15T03:02:00,1.2,北東,2.4,北東,10.2,97,0,0.5,3.5,5,0,0,994.2,1008.2
184,2021-02-15T03:03:00,1,北東,2,北北東,10.2,97.2,0,0.5,3.5,5,0,0,994.2,1008.2
185,2021-02-15T03:04:00,1,北東,2,北北東,10.3,97.3,0,0.5,3.5,5,0,0,994.1,1008.1
186,2021-02-15T03:05:00,1,北東,2,北北東,10.3,97.4,0,0.5,3.5,5,0,0,994.1,1008.1
187,2021-02-15T03:06:00,1,北東,2,北北東,10.1,97.2,0,0.5,3.5,5,0,0,994.1,1008.1
188,2021-02-15T03:07:00,1,北東,2,北北東,10,97,0,0.5,3.5,5,0,0,994,1008
189,2021-02-15T03:08:00,1.1,北東,3,北東,10.2,97.1,0,0.5,3.5,5,0,0,994,1008
190,2021-02-15T03:09:00,1.2,北東,3.1,北東,10.2,97.3,0,0.5,3.5,5,0,0,994,1008
191,2021-02-15T03:10:00,1.3,北東,3.1,北東,10.3,97.3,0,0.5,3.5,5,0,0,994,1008
192,2021-02-15T03:11:00,1.4,北東,3.1,北東,10.2,97.4,0,0.5,3.5,5,0,0,994,1008
193,2021-02-15T03:12:00,1.4,北東,3.1,北東,10.2,97.1,0,0.5,3.5,5,0,0,993.9,1007.9
194,2021-02-15T03:13:00,1.4,東北東,3.1,北東,10.2,97.2,0,0.5,3.5,5,0,0,993.9,1007.9
195,2021-02-15T03:14:00,1.4,東北東,3.2,北東,10.1,97.1,0.5,1,4,5.5,0,0,993.9,1007.9
196,2021-02-15T03:15:00,1.5,北東,3.2,北東,10.3,97.2,0.5,1,4,5.5,0,0,993.8,1007.8
197,2021-02-15T03:16:00,1.5,北東,3.2,北東,10.3,97.4,0.5,1,4,5.5,0,0,993.8,1007.8
198,2021-02-15T03:17:00,1.6,北東,3.2,北東,10.3,97.4,0.5,1,4,5.5,0,0,993.8,1007.8
199,2021-02-15T03:18:00,1.6,北東,3.2,北東,10.3,97.3,0.5,1,4,5.5,0,0,993.7,1007.7
200,2021-02-15T03:19:00,1.6,北東,3.2,北東,10.3,97.2,0.5,1,4,5.5,0,0,993.7,1007.7
201,2021-02-15T03:20:00,1.5,北東,3.2,北東,10.3,97.3,0.5,1,4,5.5,0,0,993.7,1007.7
202,2021-02-15T03:21:00,1.7,北東,3.4,北東,10.3,97.3,0.5,1,4,5.5,0,0,993.6,1007.6
203,2021-02-15T03:22:00,1.9,北東,4,北東,10.3,97.2,0.5,1,4,5.5,0,0,993.6,1007.6
204,2021-02-15T03:23:00,2.2,北東,4.3,北東,10.3,97.2,0.5,1,4,5.5,0,0,993.5,1007.5
205,2021-02-15T03:24:00,2.3,北東,4.3,北東,10.4,97.4,0,1,4,5.5,0,0,993.5,1007.5
206,2021-02-15T03:25:00,2.2,北東,4.3,北東,10.3,97.3,0,1,4,5.5,0,0,993.5,1007.5
207,2021-02-15T03:26:00,2.2,北東,4.3,北東,10.3,97.3,0,0.5,4,5.5,0,0,993.5,1007.5
208,2021-02-15T03:27:00,2.1,北東,4.3,北東,10.3,97.3,0.5,1,4.5,6,0,0,993.5,1007.5
209,2021-02-15T03:28:00,2.2,北東,4.3,北東,10.4,97.3,0.5,1,4.5,6,0,0,993.5,1007.5
210,2021-02-15T03:29:00,2.2,北東,4.3,北東,10.4,97.3,0.5,1,4.5,6,0,0,993.4,1007.4
211,2021-02-15T03:30:00,2.2,北東,4.3,北東,10.4,97.3,0.5,1,4.5,6,0,0,993.3,1007.3
212,2021-02-15T03:31:00,2,北北東,4.3,北東,10.3,97.2,0.5,1,4.5,6,0,0,993.3,1007.3
213,2021-02-15T03:32:00,1.8,北北東,4.3,北東,10.5,97.3,0.5,1,4.5,6,0,0,993.3,1007.2
214,2021-02-15T03:33:00,1.5,北北東,3.7,北東,10.4,97.3,0.5,1,4.5,6,0,0,993.2,1007.1
215,2021-02-15T03:34:00,1.3,北北東,2.7,北東,10.3,97.2,0.5,1,4.5,6,0,0,993.2,1007.2
216,2021-02-15T03:35:00,1.2,北,2.7,北東,10.4,97.2,0.5,1,4.5,6,0,0,993.1,1007
217,2021-02-15T03:36:00,1.1,北,2.6,北北東,10.4,97.3,0.5,1,4.5,6,0,0,993.1,1007
218,2021-02-15T03:37:00,0.9,北,2.6,北北東,10.3,97.2,0,1,4.5,6,0,0,993,1007
219,2021-02-15T03:38:00,0.8,北,2.3,北北東,10.3,97.1,0,1,4.5,6,0,0,993,1007
220,2021-02-15T03:39:00,0.7,北,2.3,北北東,10.3,97.1,0,1,4.5,6,0,0,992.9,1006.8
221,2021-02-15T03:40:00,0.5,北,1.8,北,10.4,97.2,0,1,4.5,6,0,0,992.9,1006.8
222,2021-02-15T03:41:00,0.4,北北西,1.8,北,10.3,97.4,0,1,4.5,6,0,0,992.9,1006.8
223,2021-02-15T03:42:00,0.4,北北西,1.1,北,10.3,97.2,0.5,1.5,5,6.5,0,0,992.9,1006.8
224,2021-02-15T03:43:00,0.3,北,1,西北西,10.3,97.2,0.5,1.5,5,6.5,0,0,992.9,1006.8
225,2021-02-15T03:44:00,0.3,北,1,西北西,10.3,97.1,0.5,1.5,5,6.5,0,0,992.9,1006.8
226,2021-02-15T03:45:00,0.3,北,1,西北西,10.3,97.3,0.5,1.5,5,6.5,0,0,992.9,1006.8
227,2021-02-15T03:46:00,0.3,北,1,西北西,10.5,97.4,0.5,1.5,5,6.5,0,0,992.9,1006.8
228,2021-02-15T03:47:00,0.4,北,1,西北西,10.4,97.4,0.5,1.5,5,6.5,0,0,992.9,1006.8
229,2021-02-15T03:48:00,0.4,北北東,1.1,北東,10.4,97.3,0.5,1.5,5,6.5,0,0,993,1006.9
230,2021-02-15T03:49:00,0.5,北北東,2.3,北北東,10.4,97.3,0.5,1.5,5,6.5,0,0,993,1006.9
231,2021-02-15T03:50:00,0.7,北北東,2.4,北北東,10.5,97.3,0.5,1.5,5,6.5,0,0,993,1006.9
232,2021-02-15T03:51:00,0.8,北北東,2.4,北北東,10.6,97.6,0.5,1.5,5,6.5,0,0,993,1006.9
233,2021-02-15T03:52:00,0.9,北北東,2.4,北北東,10.6,97.5,0,1.5,5,6.5,0,0,993,1006.9
234,2021-02-15T03:53:00,1,北北東,2.4,北北東,10.5,97.6,0.5,2,5.5,7,0,0,993,1006.9
235,2021-02-15T03:54:00,1.1,北東,2.4,北北東,10.5,97.3,0.5,2,5.5,7,0,0,992.9,1006.8
236,2021-02-15T03:55:00,1.2,北東,2.4,北北東,10.6,97.4,0.5,2,5.5,7,0,0,992.8,1006.7
237,2021-02-15T03:56:00,1.3,北東,2.4,北北東,10.6,97.6,0.5,2,5.5,7,0,0,992.8,1006.7
238,2021-02-15T03:57:00,1.3,北東,2.4,北北東,10.6,97.5,0.5,2,5.5,7,0,0,992.7,1006.6
239,2021-02-15T03:58:00,1.3,北東,2.4,北北東,10.6,97.4,1,2.5,6,7.5,0,0,992.6,1006.5
240,2021-02-15T03:59:00,1.2,北東,2.4,北北東,10.5,97.3,1,2.5,6,7.5,0,0,992.4,1006.3
241,2021-02-15T04:00:00,1.2,北東,2.4,北北東,10.7,97.4,1,2.5,6,7.5,0,0,992.4,1006.3
242,2021-02-15T04:01:00,1.3,北東,3.1,北東,10.5,97.4,1,2.5,6,7.5,0,0,992.4,1006.3
243,2021-02-15T04:02:00,1.3,北東,3.1,北東,10.5,97.2,1,2.5,6,7.5,0,0,992.5,1006.4
244,2021-02-15T04:03:00,1.3,北東,3.1,北東,10.5,97.2,0.5,2.5,6,7.5,0,0,992.5,1006.4
245,2021-02-15T04:04:00,1.3,北東,3.1,北東,10.4,97.3,1,3,6.5,8,0,0,992.5,1006.4
246,2021-02-15T04:05:00,1.4,北東,3.1,北東,10.5,97.2,1,3,6.5,8,0,0,992.5,1006.4
247,2021-02-15T04:06:00,1.5,北東,3.1,北東,10.6,97.3,1,3,6.5,8,0,0,992.5,1006.4
248,2021-02-15T04:07:00,1.6,北東,3.1,北東,10.5,97.3,1,3,6.5,8,0,0,992.4,1006.3
249,2021-02-15T04:08:00,1.7,北東,3.1,北東,10.4,97.3,0.5,3,6.5,8,0,0,992.4,1006.3
250,2021-02-15T04:09:00,1.7,北東,3.1,北東,10.4,97.2,0.5,3,6.5,8,0,0,992.3,1006.2
251,2021-02-15T04:10:00,1.7,北東,3.1,北東,10.4,97.2,0.5,3,6.5,8,0,0,992.3,1006.2
252,2021-02-15T04:11:00,1.7,北東,2.7,北東,10.5,97.3,1,3.5,7,8.5,0,0,992.2,1006.1
253,2021-02-15T04:12:00,1.8,北東,2.7,北東,10.5,97.4,1,3.5,7,8.5,0,0,992.1,1006
254,2021-02-15T04:13:00,1.8,北東,2.7,北東,10.4,97.3,1,3.5,7,8.5,0,0,992.1,1006
255,2021-02-15T04:14:00,1.9,北東,2.7,北東,10.4,97.3,0.5,3,7,8.5,0,0,992,1005.9
256,2021-02-15T04:15:00,1.9,北東,2.7,北東,10.5,97.3,1,3.5,7.5,9,0,0,992,1005.9
257,2021-02-15T04:16:00,1.9,北東,2.7,北東,10.4,97.3,1,3.5,7.5,9,0,0,992,1005.9
258,2021-02-15T04:17:00,1.8,北東,2.7,北東,10.4,97.3,1,3.5,7.5,9,0,0,992,1005.9
259,2021-02-15T04:18:00,1.8,北東,2.7,北東,10.4,97.2,1,3.5,7.5,9,0,0,992,1005.9
260,2021-02-15T04:19:00,1.8,北東,2.7,北東,10.4,97.4,1,3.5,7.5,9,0,0,991.9,1005.8
261,2021-02-15T04:20:00,1.7,北東,2.7,北東,10.5,97.5,1,3.5,7.5,9,0,0,991.9,1005.8
262,2021-02-15T04:21:00,1.5,北東,2.7,北東,10.4,97.3,1,4,8,9.5,0,0,991.9,1005.8
263,2021-02-15T04:22:00,1.3,北東,2.6,北東,10.4,97.2,1,4,8,9.5,0,0,991.9,1005.8
264,2021-02-15T04:23:00,1.2,北東,2.6,北東,10.4,97.3,1,4,8,9.5,0,0,991.8,1005.7
265,2021-02-15T04:24:00,1.1,北北東,2.6,北東,10.5,97.4,1,4,8,9.5,0,0,991.9,1005.8
266,2021-02-15T04:25:00,0.9,北北東,2.6,北東,10.4,97.3,0.5,4,8,9.5,0,0,991.9,1005.8
267,2021-02-15T04:26:00,0.8,北北東,2.4,北東,10.4,97.3,0.5,4,8,9.5,0,0,991.9,1005.8
268,2021-02-15T04:27:00,0.7,北,1.8,東北東,10.3,97.2,1,4,8.5,10,0,0,991.9,1005.8
269,2021-02-15T04:28:00,0.6,北,1.8,東北東,10.3,97.1,1,4,8.5,10,0,0,991.9,1005.8
270,2021-02-15T04:29:00,0.5,北北西,1.4,北西,10.4,97.4,1,4,8.5,10,0,0,991.8,1005.7
271,2021-02-15T04:30:00,0.5,北西,1.4,北西,10.3,97.4,1,4,8.5,10,0,0,991.8,1005.7
272,2021-02-15T04:31:00,0.4,北西,1.4,北西,10.2,97.2,0.5,4,8.5,10,0,0,991.7,1005.6
273,2021-02-15T04:32:00,0.4,北西,1.4,北西,10.2,97.2,0.5,4,8.5,10,0,0,991.7,1005.6
274,2021-02-15T04:33:00,0.4,北西,1.1,西北西,10.2,97.2,1,4.5,9,10.5,0,0,991.6,1005.5
275,2021-02-15T04:34:00,0.3,北西,1.1,西北西,10.2,97.3,1,4.5,9,10.5,0,0,991.6,1005.5
276,2021-02-15T04:35:00,0.4,北西,1.6,東北東,10.2,97.3,1,4.5,9,10.5,0,0,991.5,1005.4
277,2021-02-15T04:36:00,0.5,北北西,2,東北東,10.2,97.2,1,4.5,9,10.5,0,0,991.4,1005.3
278,2021-02-15T04:37:00,0.6,北,2.6,東北東,10.3,97.4,0.5,4.5,9,10.5,0,0,991.4,1005.3
279,2021-02-15T04:38:00,0.8,北北東,2.6,東北東,10.4,97.5,1,5,9.5,11,0,0,991.4,1005.3
280,2021-02-15T04:39:00,0.9,北東,2.6,東北東,10.4,97.5,1,5,9.5,11,0,0,991.3,1005.2
281,2021-02-15T04:40:00,1.1,北東,2.6,東北東,10.3,97.5,1,5,9.5,11,0,0,991.3,1005.2
282,2021-02-15T04:41:00,1.2,北東,2.6,東北東,10.3,97.4,1,5,9.5,11,0,0,991.3,1005.2
283,2021-02-15T04:42:00,1.3,東北東,2.6,東北東,10.5,97.5,1,4.5,9.5,11,0,0,991.3,1005.2
284,2021-02-15T04:43:00,1.5,東北東,2.6,東北東,10.3,97.5,1,5,10,11.5,0,0,991.3,1005.2
285,2021-02-15T04:44:00,1.6,東北東,2.6,東北東,10.3,97.4,1,5,10,11.5,0,0,991.3,1005.2
286,2021-02-15T04:45:00,1.7,東北東,2.6,東北東,10.5,97.5,1,5,10,11.5,0,0,991.2,1005.1
287,2021-02-15T04:46:00,1.6,北東,2.6,東北東,10.5,97.6,1,5,10,11.5,0,0,991.2,1005.1
288,2021-02-15T04:47:00,1.6,北東,2.6,北北東,10.5,97.6,1,5,10,11.5,0,0,991.1,1005
289,2021-02-15T04:48:00,1.5,北東,2.6,北北東,10.5,97.6,1,5.5,10.5,12,0,0,991.1,1005
290,2021-02-15T04:49:00,1.5,北東,2.6,北北東,10.4,97.5,1,5.5,10.5,12,0,0,991.1,1005
291,2021-02-15T04:50:00,1.5,北東,2.6,北北東,10.3,97.4,1,5.5,10.5,12,0,0,991,1004.9
292,2021-02-15T04:51:00,1.6,北東,3,北東,10.4,97.5,1,5.5,10.5,12,0,0,991,1004.9
293,2021-02-15T04:52:00,1.6,北東,3,北東,10.4,97.6,1,5.5,10.5,12,0,0,991,1004.9
294,2021-02-15T04:53:00,1.6,北東,3,北東,10.3,97.4,1,5.5,11,12.5,0,0,991,1004.9
295,2021-02-15T04:54:00,1.7,北東,3,北東,10.3,97.3,1,5.5,11,12.5,0,0,991,1004.9
296,2021-02-15T04:55:00,1.8,北東,3,北東,10.3,97.4,1,5.5,11,12.5,0,0,991,1004.9
297,2021-02-15T04:56:00,1.8,北東,3,北東,10.4,97.5,1,5.5,11,12.5,0,0,991,1004.9
298,2021-02-15T04:57:00,1.8,北東,3,北東,10.4,97.6,1,5.5,11,12.5,0,0,991,1004.9
299,2021-02-15T04:58:00,1.8,北東,3,北東,10.5,97.6,1,5.5,11.5,13,0,0,991,1004.9
300,2021-02-15T04:59:00,1.8,北東,3,北東,10.4,97.7,1,5.5,11.5,13,0,0,991,1004.9
301,2021-02-15T05:00:00,1.8,北東,3,北東,10.4,97.6,1,5.5,11.5,13,0,0,990.9,1004.8
302,2021-02-15T05:01:00,1.8,北東,2.6,北東,10.5,97.7,1,5.5,11.5,13,0,0,990.9,1004.8
303,2021-02-15T05:02:00,1.8,北東,2.6,北東,10.5,97.6,1,5.5,11.5,13,0,0,990.9,1004.8
304,2021-02-15T05:03:00,1.8,北東,2.6,北東,10.5,97.7,1,6,12,13.5,0,0,990.9,1004.8
305,2021-02-15T05:04:00,1.8,北東,2.6,北東,10.5,97.6,1,5.5,12,13.5,0,0,990.9,1004.8
306,2021-02-15T05:05:00,1.8,北東,2.6,北東,10.6,97.6,1,5.5,12,13.5,0,0,990.9,1004.8
307,2021-02-15T05:06:00,1.8,北東,2.6,北東,10.6,97.7,1,5.5,12,13.5,0,0,991,1004.9
308,2021-02-15T05:07:00,1.8,北東,2.6,北東,10.5,97.7,1,5.5,12,13.5,0,0,991,1004.9
309,2021-02-15T05:08:00,1.8,北東,2.6,北東,10.6,97.7,1,6,12.5,14,0,0,991,1004.9
310,2021-02-15T05:09:00,1.8,北東,2.6,北東,10.5,97.6,1,6,12.5,14,0,0,991,1004.9
311,2021-02-15T05:10:00,1.8,北東,2.6,北東,10.4,97.5,1,6,12.5,14,0,0,990.9,1004.8
312,2021-02-15T05:11:00,1.7,北東,2.6,北東,10.5,97.5,1,5.5,12.5,14,0,0,990.9,1004.8
313,2021-02-15T05:12:00,1.7,北東,2.6,北東,10.5,97.6,1.5,6,13,14.5,0,0,990.9,1004.8
314,2021-02-15T05:13:00,1.6,北北東,2.5,北東,10.5,97.7,1,6,13,14.5,0,0,990.8,1004.7